Regional Weather Roundup
Issued by NWS

Home | Current Version | Previous Version | Text Only | Print | Product List | Glossary Off
Versions: 1 2 3 4 5 6 7 8 9 10 11 12 13 14 15 16 17 18 19 20 21 22 23 24 25 26 27 28 29 30 31 32 33 34 35 36 37 38 39 40 41 42 43 44 45 46 47 48 49 50

000
ASUS44 KMEG 250110
RWRTN
TENNESSEE HOURLY STATE WEATHER ROUNDUP
NATIONAL WEATHER SERVICE MEMPHIS TN
800 PM CDT SAT SEP 24 2016

TNZ002-004-019-021-049-052-054-088>092-250200-
WEST TENNESSEE

CITY           SKY/WX    TMP DP  RH WIND       PRES   REMARKS
MEMPHIS INTL   PTCLDY    88  65  46 SE5       29.99S HX  90
NWS MEMPHIS      N/A     80 N/A N/A MISG        N/A
JACKSON          N/A    N/A N/A N/A MISG      30.02R
DYERSBURG      CLEAR    N/A N/A N/A MISG      30.00
UNION CITY     CLEAR     82  66  57 SE3       30.01R
PARIS          CLEAR     73  66  78 CALM      30.05R
HUNTINGDON       N/A     77  70  78 CALM      30.02S
LEXINGTON      CLEAR     75  72  88 CALM      30.03S
$$

TNZ008-025-027-028-033-062-065-066-250200-
NORTH MIDDLE TENNESSEE

CITY           SKY/WX    TMP DP  RH WIND       PRES   REMARKS
NASHVILLE      CLEAR     81  62  52 E6        30.06S
PORTLAND       CLEAR     73  68  83 CALM      30.07R
CLARKSVILLE    CLEAR     76  65  68 E3        30.05S
SMYRNA         CLEAR     74  65  73 CALM      30.06S
COOKEVILLE     CLEAR     70  66  88 CALM      30.08R
GALLATIN       CLEAR     75  66  73 CALM      30.09R
CROSSVILLE     CLEAR     75  62  64 N3        30.14R
$$

TNZ061-075-076-078-094-096-097-250200-
SOUTH MIDDLE TENNESSEE

CITY           SKY/WX    TMP DP  RH WIND       PRES   REMARKS
FAYETTEVILLE   CLOUDY    77  63  61 NE3       30.06R
TULLAHOMA        N/A     79  61  53 NE3       30.09R
WINCHESTER     CLEAR     77  64  65 NE3       30.08R
MCMINNVILLE    CLEAR     75  66  73 CALM      30.09R
COLUMBIA         N/A     73  73 100 CALM      30.05R
SHELBYVILLE    CLEAR     75  66  73 CALM      30.08R
$$

TNZ017-018-042-046-047-250200-
NORTHEAST TENNESSEE

CITY           SKY/WX    TMP DP  RH WIND       PRES   REMARKS
TRI CITIES     CLEAR     72  64  76 CALM      30.11R
ELIZABETHTON     N/A     72  63  73 CALM      30.11R
$$

TNZ012-013-036-069-073-074-250200-
CENTRAL EAST TENNESSEE

CITY           SKY/WX    TMP DP  RH WIND       PRES   REMARKS
KNOXVILLE      CLEAR     81  59  47 N5        30.06R
OAK RIDGE      CLEAR     79  65  62 CALM      30.09R
DOWNTOWN KNOXV CLEAR     73  66  78 CALM      30.06R
GATLINBURG     CLEAR     75  61  60 CALM      30.07R
MORRISTOWN     CLEAR     77  63  61 CALM      30.09R
JACKSBORO      CLEAR     73  64  73 CALM      30.12R
$$

TNZ083-085-099-250200-
SOUTHEAST TENNESSEE

CITY           SKY/WX    TMP DP  RH WIND       PRES   REMARKS
CHATTANOOGA    PTCLDY    80  63  55 NW5       30.04R
$$

SKY/WX REPORTED AS FAIR MEANS FEW OR NO CLOUDS BELOW
12 THOUSAND FEET.




USA.gov is the U.S. government's official web portal to all federal, state and local government web resources and services.